DMSP 5D-2 F13 DEB, 40413

Orbit data source: Space-Track

DMSP 5D-2 F13 DEB, 40413 is space debris in SSO originally from a launch on Fri, 24 Mar 1995 UTC launched from the Air Force Western Test Range (AFWTR). Debris objects in space refer to the collection of defunct objects orbiting the Earth. Examples of debris include non-operational satellites, rocket bodies, and fragments generated from explosions, collisions, or faulty payload assembly.

Loading next visibility...
Identifier
40413, 1995-015AA
Orbit
SSO
Country
Flag of USUS
Related business
Manufacturer
Unknown
Mission
Spacecraft
Bus & Motor
Unknown
Mass
Unknown
Launch date (UTC)
1995-03-24 (31 years ago)
Launch vehicle
Unknown
Launch site
Air Force Western Test Range (AFWTR)
Object type
Payload
Rocket body
Debris
Shape & HBR
Unknown shape, 0.1 m
Radar Cross Section
Small (<0.1 m²)

Expand to show TLE details & history
Last TLE update: 19 hours ago

TLE from 19 hours ago
0 DMSP 5D-2 F13 DEB
1 40413U 95015AA  25303.31623398  .00003693  00000-0  13998-2 0  9993
2 40413  98.6393 328.3681 0012227 238.1844 121.8149 14.31689813554449
Epoch: 2025-10-30T07:35Z
TLE epoch observation values (Epoch: 2025-10-30T07:35:22.615Z)
Latitude
-0.00005°
Longitude
175.64711°
Altitude
793.647 km
Speed
7.454 km/s
True Right ascension
21h 53m 28s
True Declination
0° 00' 00"
Sunlit
Object was in daylight at epoch
Visualization orbit readout
Latitude
Unknown
Longitude
Unknown
Altitude
Unknown
Speed
Unknown
Apparent Right ascension
Unknown
Apparent Declination
Unknown
Sunlit
N/A
Visualization observer readout
Local Sidereal Time
22:04:04
Azimuth
Unknown
Elevation
Unknown
Doppler factor
Unknown
Orbital elements
Apogee altitude
791.984 km
Perigee altitude
774.471 km
Semi-major axis
7,161.365 km
Eccentricity
0.00122
Inclination
98.6393°
RAAN
328.3681°
Arg. of periapsis
238.1844°
True anomaly
121.93386°
Mean anomaly
121.8149°
Eccentric anomaly
121.87439°
Mean motion
3.58137 °/min
Orbital period
100.52 mins
BSTAR
0.0013998
Loading maneuver chart data...
Computing Atmospheric mass density...

Documentation

Showing up to 5 results
|